CAPE
1258 1086 1026 936 951 1103 1184 1325 1599 1745 1870 2183 2619 2811 2608 2426 2364 1846 1256 892 519 321 82 3 0 1 2 20 60 120 176 186 55 70 79 108 67 21 2 14 134 155 219 404 500 606 680 1322 1528 1535 1549 1689 1572 1586 1478 1491 1703 1916 1930 1904 1729 1562 1468 1628 962 1160 1314 866 1188 1122 1075 537 454 530 925 828 664 641 754 800 988 1046 836 623 556
896 815 877 820 655 963 1089 1188 1355 1535 1632 1969 2417 2751 2826 2246 2220 1708 1130 766 491 360 89 6 2 0 4 1 0 0 0 0 0 3 2 0 0 0 0 0 5 53 54 264 341 297 332 465 927 1421 1491 1362 1512 1479 1462 1262 1366 1443 1337 1497 1425 1392 1562 1606 1364 1268 673 824 736 794 903 622 353 364 366 410 714 712 798 912 1017 1070 1039 1252 1132
1092 859 803 858 810 786 964 1056 1241 1452 1601 1817 2270 2587 2528 2344 1948 1693 1038 760 570 400 123 36 101 98 0 0 0 13 76 38 0 0 0 0 0 0 0 0 2 2 21 10 70 131 163 179 274 312 629 1017 1334 1349 1219 1581 1642 1452 1192 1167 1342 1262 1358 1624 1473 810 1195 926 1389 656 557 537 1132 415 508 423 510 325 292 300 472 622 578 758 944
1582 1288 997 846 838 736 764 936 1149 1287 1459 1635 2069 2321 2402 1991 2022 1438 1191 806 596 459 26 64 169 402 243 179 52 0 0 0 0 0 0 0 0 0 1 11 12 10 0 0 0 14 51 145 142 191 415 523 416 649 851 766 788 910 767 637 741 1068 917 1207 1376 1504 1064 1091 518 901 960 468 211 701 764 471 306 137 251 199 347 423 506 581 835
1371 1520 1312 896 857 755 619 874 1061 1148 1422 1473 1860 2036 2012 1859 2048 1520 1154 857 560 356 270 442 234 161 284 180 65 37 0 0 0 0 0 0 0 0 1 0 1 0 0 1 0 4 20 61 103 131 134 128 96 102 142 243 428 561 624 945 659 689 992 1121 1282 824 1149 1254 1258 412 485 398 651 645 505 484 578 268 335 257 425 288 416 539 696
938 1274 1490 1282 965 875 703 727 945 1005 1300 1386 1645 1814 1711 1695 1912 1492 1014 891 458 425 461 75 13 16 1 0 0 0 0 0 0 0 0 2 0 0 0 0 0 1 2 3 0 1 13 40 78 24 53 55 34 22 14 27 22 109 340 356 564 1115 1257 1083 1098 1164 484 656 656 639 752 818 929 800 426 463 661 526 231 114 407 708 508 598 618
658 887 1147 1390 1249 966 779 709 808 795 1038 1255 1422 1589 1425 1534 1769 1451 1036 833 482 408 330 34 46 23 4 0 0 0 0 1 2 3 6 0 1 2 13 44 15 30 8 0 0 1 8 14 27 13 6 11 16 28 20 20 6 11 80 138 252 372 518 476 226 840 301 216 380 918 727 1186 879 744 350 321 270 262 420 799 444 358 576 370 421
287 643 772 1026 1281 1134 992 896 803 685 878 1113 1284 1372 1268 1582 1568 1330 961 694 594 500 330 58 38 35 11 0 0 0 0 4 13 24 10 4 2 5 18 57 30 19 13 7 1 0 1 2 4 4 2 0 2 10 15 8 9 38 40 56 47 88 137 217 250 291 161 60 268 240 286 389 225 467 469 413 484 247 249 535 617 502 407 554 423
0 12 373 809 926 1205 1124 1023 806 680 828 1011 1137 1166 1241 1472 1278 1191 886 672 682 672 306 158 50 36 18 0 0 0 4 2 1 2 8 6 26 10 24 20 24 4 0 4 1 0 0 0 0 0 0 0 0 0 0 4 14 29 37 36 27 20 19 30 27 33 42 54 88 80 144 229 354 438 317 139 270 216 261 428 311 349 227 172 532
0 0 0 22 610 924 1132 1022 829 741 822 888 914 939 1154 1244 1040 981 870 710 776 696 386 209 138 117 36 1 0 0 0 0 0 7 20 16 11 27 14 10 0 0 0 0 0 0 0 0 0 0 0 0 0 0 0 0 0 0 4 11 15 14 10 12 2 0 0 6 0 1 2 8 37 106 67 23 70 152 103 98 90 29 114 281 84
0 0 0 0 22 730 1012 1005 915 802 912 715 777 734 1019 1084 930 870 831 582 721 710 356 299 266 307 51 28 10 2 0 1 11 19 19 22 1 0 2 0 0 0 0 0 0 0 0 0 0 0 0 0 0 0 0 0 0 0 0 0 0 0 0 0 0 0 0 0 0 0 0 0 0 1 1 0 0 1 1 5 2 0 0 1 6
0 0 0 0 7 495 908 977 894 927 843 714 735 651 872 886 921 792 759 627 758 647 439 382 419 313 210 155 26 23 13 7 3 8 23 9 5 0 0 0 0 0 0 0 0 0 0 0 0 0 0 0 0 0 0 0 0 0 0 0 0 0 0 0 0 0 0 0 0 0 0 0 0 0 0 0 0 0 0 0 0 0 0 0 0
0 0 0 0 1 560 878 790 783 940 793 654 722 621 706 846 856 723 719 681 720 597 506 455 512 483 326 390 108 101 104 22 5 19 11 0 3 0 0 0 0 0 0 0 0 0 0 0 0 0 0 0 0 0 0 0 0 0 0 0 0 0 0 0 0 0 0 0 0 0 0 0 0 0 0 0 0 0 0 0 0 0 0 0 0
0 0 0 0 47 505 647 604 666 824 687 632 687 671 641 786 642 625 701 696 683 610 508 468 610 605 509 520 320 176 261 128 27 41 37 5 4 1 0 0 0 0 0 0 0 0 0 0 0 0 0 0 0 0 0 0 0 0 0 0 0 0 0 0 0 0 0 0 0 0 0 0 0 0 0 0 0 0 0 0 0 0 0 0 0
0 12 30 146 170 433 586 566 702 728 627 652 712 686 667 532 553 745 669 754 681 627 602 518 574 623 627 746 619 455 313 173 94 59 191 23 20 9 0 0 0 0 0 0 0 0 0 0 0 0 0 0 0 0 0 0 0 0 0 0 0 0 0 0 0 0 0 0 0 0 0 0 0 0 0 0 0 0 0 0 0 0 0 0 0
15 20 146 230 336 560 653 737 774 729 672 691 752 746 648 433 619 733 701 874 775 710 634 591 618 645 795 856 867 867 475 212 93 94 276 196 112 20 0 0 0 0 0 2 0 0 0 0 0 0 0 0 0 0 0 0 0 0 0 0 0 0 0 0 0 0 0 0 0 0 0 0 0 0 0 0 0 0 0 0 0 0 0 0 0
67 15 8 278 437 442 488 670 619 629 686 730 789 749 564 643 870 812 767 759 783 882 789 689 747 838 977 1072 1067 984 948 797 346 519 598 546 368 99 12 4 0 0 4 47 1 0 0 0 0 0 0 0 0 0 0 0 0 0 0 0 0 0 0 0 0 0 0 0 0 0 0 0 0 0 0 0 0 0 0 0 0 0 0 0 0
117 48 16 52 300 485 459 471 540 588 573 596 644 681 631 948 766 482 484 699 743 757 904 874 953 961 960 1028 975 1020 1003 977 950 1052 931 742 649 366 138 33 69 26 54 84 21 0 0 0 0 0 0 0 0 0 0 0 0 0 0 0 0 0 0 0 0 0 0 0 0 0 0 0 0 0 0 0 0 0 0 0 0 0 0 0 0
139 182 127 78 116 210 289 342 382 496 550 608 508 545 680 946 774 642 600 514 551 638 733 851 753 634 789 989 1015 1070 1042 1027 1031 1141 1072 890 721 472 391 259 170 136 28 99 93 24 5 0 0 0 0 0 0 0 0 0 0 0 0 0 0 0 0 0 0 0 0 0 0 0 0 0 0 0 0 0 0 0 0 0 0 0 0 0 0
64 118 163 170 148 129 155 282 337 415 512 574 536 515 596 742 800 782 684 517 438 486 381 313 302 463 876 1009 1050 949 942 960 1114 1213 1146 902 776 572 481 416 328 147 45 113 71 53 36 10 4 0 0 0 0 0 0 0 0 0 0 0 0 0 0 0 0 0 0 0 0 0 0 0 0 0 0 0 0 0 0 0 0 0 0 0 0
16 26 60 82 112 173 183 165 132 203 336 419 436 464 498 514 607 541 596 650 693 638 471 343 500 700 828 881 883 1009 1014 969 1063 1158 1106 952 822 697 638 513 439 208 66 79 48 36 31 35 12 1 0 0 0 0 0 0 0 0 0 0 0 0 0 0 0 0 0 0 0 0 0 0 0 0 0 0 0 0 0 0 0 0 0 0 0
0 0 4 16 24 17 11 15 36 33 58 124 229 355 425 428 375 394 240 286 488 625 716 716 677 634 648 643 687 846 971 976 1048 1151 1105 934 870 784 795 584 545 333 137 76 48 53 34 38 12 2 0 0 0 0 0 0 0 0 0 0 0 0 0 0 0 0 0 0 0 0 0 0 0 0 0 0 0 0 0 0 0 0 0 0 0
0 0 0 0 0 0 0 0 0 2 0 0 0 0 32 3 69 288 402 485 550 554 548 672 786 863 887 757 651 639 725 950 1012 1084 1131 929 863 841 773 703 633 446 286 146 45 109 58 31 32 10 0 0 0 0 0 0 0 0 0 0 0 0 0 0 0 0 0 0 0 0 0 0 0 0 0 0 0 0 0 0 0 0 0 0 0
0 0 0 0 0 0 0 0 0 0 0 0 0 0 0 0 5 0 26 176 461 612 620 648 665 882 1009 1084 1068 1005 924 984 966 919 968 1035 863 834 762 717 559 526 395 216 83 177 73 40 48 26 2 0 0 0 0 0 0 0 0 0 0 0 0 0 0 0 0 0 0 0 0 0 0 0 0 0 0 0 0 0 0 0 0 0 0
0 0 0 0 0 0 0 0 0 0 0 0 0 0 0 0 0 0 0 0 21 400 688 660 725 948 1038 1072 1102 1024 989 1010 1054 910 800 854 886 794 759 612 554 558 460 372 226 295 93 61 101 38 1 0 0 0 0 0 0 0 0 0 0 0 0 0 0 0 0 0 0 0 0 0 0 0 0 0 0 0 0 0 0 0 0 0 0
2 0 0 0 0 0 0 0 0 0 0 0 0 0 0 2 0 0 0 0 0 2 11 587 968 962 958 910 937 998 1076 1083 1082 1046 918 788 737 707 759 691 499 544 531 483 504 297 170 74 147 24 0 0 0 0 0 0 0 0 0 0 0 0 0 0 0 0 0 0 0 0 0 0 0 0 0 0 0 0 0 0 0 0 0 0 0
0 0 0 0 0 0 0 0 0 0 0 0 0 0 0 0 0 0 0 0 0 0 0 2 26 682 1027 1125 960 1151 1155 1186 1230 1069 1056 909 785 746 709 707 562 526 562 575 476 370 278 181 103 11 0 0 0 0 0 0 0 0 0 0 0 0 0 0 0 0 0 0 0 0 0 0 0 0 0 0 0 0 0 0 0 0 0 0 0
0 0 0 0 0 0 0 0 0 0 0 0 0 0 0 0 0 0 0 0 0 0 0 0 0 30 141 383 734 1016 1126 1191 1138 1110 1052 1033 898 722 671 693 598 561 525 543 61 266 57 44 44 1 0 0 0 0 0 0 0 0 0 0 0 0 0 0 0 0 0 0 0 0 0 0 0 0 0 0 0 0 0 0 0 0 0 0 0
0 0 0 0 0 0 0 0 0 0 0 0 0 0 0 0 0 0 0 0 0 0 0 0 0 0 0 4 138 389 727 982 1054 1060 1039 992 966 894 827 758 652 584 519 456 437 157 136 95 48 59 0 0 0 0 0 0 0 0 0 0 0 0 0 0 0 0 0 0 0 0 0 0 0 0 0 0 0 0 0 0 0 0 0 0 0
0 0 0 0 0 0 0 2 2 1 0 0 0 0 0 0 0 0 0 0 0 0 0 0 0 0 0 0 1 176 426 520 777 917 960 946 840 908 887 808 721 520 528 377 355 247 210 39 36 30 62 78 46 2 0 0 0 0 0 0 0 0 0 0 0 0 0 0 0 0 0 0 0 0 0 0 0 0 0 0 0 0 0 0 0
0 0 0 0 0 0 0 0 1 3 2 0 0 0 0 0 0 0 0 0 0 0 0 0 0 0 0 0 0 2 93 396 541 562 864 900 774 676 742 726 657 556 484 440 449 456 170 28 76 105 101 67 30 8 66 0 0 0 0 0 0 0 0 0 0 0 0 0 0 0 0 0 0 0 0 0 0 0 0 0 0 0 0 0 0
0 0 0 0 0 0 0 0 0 0 0 0 1 0 0 0 0 0 0 0 0 0 0 0 0 0 0 0 0 0 0 60 279 424 554 678 651 596 524 578 578 496 481 472 468 201 113 86 162 129 113 0 44 2 12 6 0 0 0 0 0 0 0 0 0 0 0 0 0 0 0 0 0 0 0 0 0 0 0 0 0 0 0 0 0
0 0 0 0 0 0 0 0 0 0 0 0 0 0 0 0 0 0 0 0 0 0 0 0 0 0 0 0 0 0 0 2 124 391 463 568 515 514 528 508 462 302 266 261 127 203 168 144 105 62 23 12 90 0 2 12 1 0 0 0 0 0 0 0 0 0 0 0 0 0 0 0 0 0 0 0 0 0 0 0 0 0 0 0 0
0 0 0 0 0 0 0 0 0 0 0 0 0 0 0 0 0 0 0 0 0 0 0 0 0 0 0 0 0 0 0 0 49 322 390 390 460 448 527 507 380 352 312 296 264 269 194 156 113 115 91 105 40 30 19 12 0 0 0 0 0 0 0 0 0 0 0 0 0 0 0 0 0 0 0 0 0 0 0 0 0 0 0 0 0
0 0 0 0 0 0 0 0 0 0 0 0 0 0 0 0 0 0 0 0 0 0 0 0 0 0 0 0 0 0 0 0 0 26 255 253 266 363 380 320 311 347 362 359 317 276 244 225 194 161 0 101 59 128 38 4 0 0 0 0 0 0 0 0 0 0 0 0 0 0 0 0 0 0 0 0 0 0 0 0 0 0 0 0 0
0 0 0 0 0 0 0 0 0 0 0 0 0 0 0 0 0 0 0 0 0 0 0 0 0 0 0 0 0 0 0 0 0 4 44 160 223 257 227 261 250 341 256 208 294 286 270 225 196 0 0 0 87 63 0 0 0 0 0 0 0 0 0 0 0 0 0 0 0 0 0 0 0 0 0 0 0 0 0 0 0 0 0 0 0
0 0 0 0 0 0 0 0 0 0 0 0 0 0 0 0 0 0 0 0 0 0 0 0 0 0 0 0 0 0 0 0 0 0 32 171 232 234 244 202 219 264 252 218 262 215 234 209 111 103 10 0 0 0 0 0 0 0 0 0 0 0 0 0 0 0 0 0 0 0 0 0 0 0 0 0 0 0 0 0 0 0 0 0 0
0 0 0 0 0 0 0 0 0 0 0 0 0 0 0 0 0 0 0 0 0 0 0 0 0 0 0 0 0 0 0 0 0 0 16 142 240 242 242 216 201 204 211 150 249 198 172 136 21 0 0 0 0 0 0 0 0 0 0 0 0 0 0 0 0 0 0 0 0 0 0 0 0 0 0 0 0 0 0 0 0 0 0 0 0
0 0 0 0 0 0 0 0 0 0 0 0 0 0 0 0 0 0 0 0 0 0 0 0 0 0 0 0 0 0 0 0 0 3 59 194 287 271 255 202 172 212 238 155 120 190 149 0 0 10 0 0 0 0 0 1 0 0 0 0 0 0 0 0 0 0 0 0 0 0 0 0 0 0 0 0 0 0 0 0 0 0 0 0 0
0 1 3 6 7 1 0 0 0 0 0 0 0 0 0 0 0 0 0 0 0 0 0 0 0 0 0 0 0 0 0 0 2 15 70 190 258 227 244 204 207 204 207 81 0 117 0 149 82 1 8 13 2 0 0 0 0 0 0 0 0 0 0 0 0 0 0 0 0 0 0 0 0 0 0 0 0 0 0 0 1 4 3 2 0
3 5 4 4 2 0 0 0 0 0 0 0 0 0 0 0 0 0 0 0 0 0 0 0 0 0 0 0 0 0 0 0 64 128 128 210 193 200 214 251 265 196 98 0 0 20 35 2 41 8 0 0 0 0 0 0 0 0 0 0 0 0 0 0 0 0 0 0 0 0 0 0 0 0 0 0 0 0 0 0 2 4 2 1 1
0 0 0 0 0 0 0 0 0 0 0 0 0 0 0 0 0 0 0 0 0 0 0 0 0 0 0 0 0 0 0 10 89 172 172 148 159 192 150 83 99 139 150 112 0 0 41 6 4 0 4 1 0 3 0 0 0 0 0 0 0 0 0 0 0 0 0 0 0 0 0 0 0 0 0 0 0 0 0 0 1 0 0 0 2
0 0 0 0 0 0 0 0 0 0 0 0 0 0 0 0 0 0 0 0 0 0 0 0 0 0 0 0 1 1 0 29 156 128 66 133 151 164 56 96 155 219 230 186 0 0 1 3 1 1 0 0 0 0 0 0 0 0 0 0 0 0 0 0 0 0 0 0 0 0 0 0 0 0 0 0 0 0 0 0 0 0 1 2 1
0 0 0 0 0 0 0 0 0 0 0 0 0 0 0 0 0 0 0 0 0 0 0 0 0 0 0 0 0 0 10 102 186 138 80 117 104 43 72 147 227 169 245 99 0 0 0 2 1 0 0 0 0 0 0 0 0 0 0 0 0 0 0 0 0 0 0 0 0 0 0 0 0 0 0 0 0 0 0 0 0 0 0 1 1
2 0 4 2 1 0 0 0 0 0 0 0 0 0 0 0 0 0 0 0 0 0 0 0 0 0 0 0 0 5 23 87 94 64 25 16 5 70 156 160 118 55 65 26 4 0 0 0 0 0 0 0 0 0 0 0 0 0 0 0 0 0 0 0 0 0 0 0 0 0 0 0 0 0 0 0 0 0 0 1 0 0 0 0 2
1 0 0 0 0 0 0 0 0 0 0 0 0 0 0 0 0 0 0 0 0 0 0 0 0 0 1 0 3 7 43 70 106 64 34 8 62 83 113 141 53 9 8 5 0 1 0 0 0 0 0 0 0 1 0 0 0 0 0 0 0 0 0 0 0 0 0 0 0 0 0 0 0 0 2 1 2 3 0 0 0 0 1 0 0
0 0 0 0 0 0 0 0 0 0 0 0 0 0 0 0 0 0 0 0 0 0 0 1 7 9 8 5 7 51 62 70 62 22 34 98 141 121 117 63 8 20 11 2 0 0 0 6 0 0 0 0 0 0 0 0 0 0 0 0 0 0 0 0 0 0 0 0 0 0 0 0 0 0 0 0 0 1 2 1 5 0 0 1 1
0 0 1 1 0 0 0 0 0 0 1 0 0 0 0 0 0 0 0 0 1 0 0 2 8 18 28 29 60 23 12 18 36 41 74 106 102 111 80 51 38 26 7 0 0 0 0 0 0 0 0 0 0 0 0 0 0 0 0 0 0 0 0 0 0 0 0 0 0 0 0 1 1 1 2 2 6 1 0 1 1 0 0 0 2
0 1 1 0 0 0 0 0 0 0 0 0 0 0 0 0 0 0 0 2 5 4 3 6 18 36 56 44 90 14 12 40 73 82 21 3 10 44 72 37 23 12 3 0 0 0 0 0 0 0 0 0 0 0 0 0 0 0 0 0 0 0 0 0 0 0 0 0 0 0 1 0 1 0 0 0 0 0 0 0 0 0 1 0 1
11 12 9 5 0 1 1 0 1 1 0 0 0 0 1 1 0 2 6 5 0 2 6 14 18 35 32 67 89 9 0 7 4 18 35 34 24 33 26 14 5 2 4 0 0 5 0 0 0 0 0 0 0 0 0 0 0 0 0 0 0 0 0 0 0 0 0 0 0 0 1 2 0 0 0 2 2 4 3 1 1 0 1 3 1
18 9 1 2 3 4 4 4 3 3 4 4 5 4 3 5 7 2 6 7 8 9 19 23 25 37 47 97 4 18 43 2 20 46 36 25 2 12 19 11 7 2 3 5 0 0 0 0 0 0 0 0 0 0 0 0 0 0 0 0 0 0 0 0 0 0 0 0 0 0 1 1 0 3 0 0 0 1 0 0 2 1 0 0 1
Wind_Speed
27 27 26 26 27 28 27 27 28 30 31 32 32 32 32 32 32 31 29 29 28 29 nan nan nan nan nan nan nan 31 32 31 nan nan nan 32 nan nan nan nan 28 26 25 24 24 23 24 27 29 30 29 30 31 31 28 25 23 23 22 22 20 21 23 26 24 26 26 24 24 26 32 35 31 37 40 38 35 35 35 35 36 35 33 31 31
26 24 23 24 24 26 27 27 28 29 30 31 32 33 33 33 33 32 29 28 26 26 nan nan nan nan nan nan nan nan nan nan nan nan nan nan nan nan nan nan nan nan nan 26 25 24 24 25 27 30 28 29 30 31 31 28 26 26 25 23 23 21 22 25 24 26 25 21 21 23 28 33 34 39 44 40 43 40 39 38 37 36 35 36 36
21 20 21 21 22 24 25 25 25 27 30 32 33 34 35 34 33 33 30 28 26 25 26 nan 30 nan nan nan nan nan nan nan nan nan nan nan nan nan nan nan nan nan nan nan nan 26 26 26 27 28 29 30 31 30 29 29 28 28 27 25 26 24 22 24 23 21 23 20 21 22 23 31 38 38 38 40 45 45 43 40 38 36 36 37 37
16 19 21 21 22 22 23 24 25 28 30 32 33 35 35 34 33 32 30 29 28 26 nan nan 29 30 32 32 nan nan nan nan nan nan nan nan nan nan nan nan nan nan nan nan nan nan nan 28 28 29 30 30 30 31 31 31 30 30 29 28 26 25 25 24 23 22 20 19 16 17 19 24 32 36 37 39 42 42 42 43 42 40 39 38 38
15 18 21 23 23 22 23 24 27 28 29 32 34 35 36 36 35 33 31 30 28 28 27 29 30 29 29 31 nan nan nan nan nan nan nan nan nan nan nan nan nan nan nan nan nan nan nan nan 30 31 31 31 nan 32 32 31 31 30 28 27 26 26 27 26 24 21 21 19 18 21 18 16 22 35 39 38 40 40 40 42 46 43 42 43 40
14 16 20 23 23 23 24 24 25 27 28 31 34 35 38 38 37 34 31 30 28 27 27 nan nan nan nan nan nan nan nan nan nan nan nan nan nan nan nan nan nan nan nan nan nan nan nan nan nan nan nan nan nan nan nan nan nan 30 31 29 28 30 29 27 25 27 24 23 22 20 21 19 18 26 33 35 38 37 38 39 42 45 46 42 44
17 16 18 21 23 24 24 24 24 26 27 32 34 36 38 38 38 35 31 30 29 27 26 nan nan nan nan nan nan nan nan nan nan nan nan nan nan nan nan nan nan nan nan nan nan nan nan nan nan nan nan nan nan nan nan nan nan nan nan 30 30 31 31 29 29 28 27 21 17 18 19 21 21 20 22 29 31 33 35 41 43 43 47 45 42
21 19 17 18 21 23 23 25 26 26 30 33 34 37 39 39 38 35 31 31 30 27 25 nan nan nan nan nan nan nan nan nan nan nan nan nan nan nan nan nan nan nan nan nan nan nan nan nan nan nan nan nan nan nan nan nan nan nan nan nan nan nan 32 31 31 30 28 nan 23 24 22 22 28 23 22 22 26 27 28 34 38 43 45 46 45
nan nan 18 17 19 20 22 24 25 30 33 34 35 38 40 39 36 33 30 30 31 29 25 23 nan nan nan nan nan nan nan nan nan nan nan nan nan nan nan nan nan nan nan nan nan nan nan nan nan nan nan nan nan nan nan nan nan nan nan nan nan nan nan nan nan nan nan nan nan nan 33 32 31 31 29 25 24 24 24 29 33 35 38 39 42
nan nan nan nan 20 20 23 25 28 31 33 35 37 39 39 39 34 30 29 28 29 29 25 23 23 24 nan nan nan nan nan nan nan nan nan nan nan nan nan nan nan nan nan nan nan nan nan nan nan nan nan nan nan nan nan nan nan nan nan nan nan nan nan nan nan nan nan nan nan nan nan nan nan 31 nan nan nan 23 19 nan nan nan 30 34 nan
nan nan nan nan nan 23 25 26 29 34 34 36 38 37 36 35 30 27 27 27 28 27 24 21 21 22 nan nan nan nan nan nan nan nan nan nan nan nan nan nan nan nan nan nan nan nan nan nan nan nan nan nan nan nan nan nan nan nan nan nan nan nan nan nan nan nan nan nan nan nan nan nan nan nan nan nan nan nan nan nan nan nan nan nan nan
nan nan nan nan nan 25 27 26 30 33 32 33 34 33 32 29 26 26 26 25 26 25 23 20 19 19 19 21 nan nan nan nan nan nan nan nan nan nan nan nan nan nan nan nan nan nan nan nan nan nan nan nan nan nan nan nan nan nan nan nan nan nan nan nan nan nan nan nan nan nan nan nan nan nan nan nan nan nan nan nan nan nan nan nan nan
nan nan nan nan nan 23 24 23 25 27 26 27 29 29 27 26 28 26 24 24 25 24 22 20 18 18 19 19 21 22 23 nan nan nan nan nan nan nan nan nan nan nan nan nan nan nan nan nan nan nan nan nan nan nan nan nan nan nan nan nan nan nan nan nan nan nan nan nan nan nan nan nan nan nan nan nan nan nan nan nan nan nan nan nan nan
nan nan nan nan nan 17 18 18 18 18 20 22 25 25 25 26 28 24 24 25 25 24 23 21 19 18 19 19 19 21 22 23 nan nan nan nan nan nan nan nan nan nan nan nan nan nan nan nan nan nan nan nan nan nan nan nan nan nan nan nan nan nan nan nan nan nan nan nan nan nan nan nan nan nan nan nan nan nan nan nan nan nan nan nan nan
nan nan nan 18 14 14 15 14 14 14 16 18 21 23 24 27 25 24 25 26 25 24 23 21 18 17 16 16 17 18 20 22 nan nan 23 nan nan nan nan nan nan nan nan nan nan nan nan nan nan nan nan nan nan nan nan nan nan nan nan nan nan nan nan nan nan nan nan nan nan nan nan nan nan nan nan nan nan nan nan nan nan nan nan nan nan
nan nan 20 20 19 18 17 14 14 14 16 17 19 21 24 25 25 24 25 26 25 25 22 20 18 16 15 15 14 14 16 18 nan nan 22 22 23 nan nan nan nan nan nan nan nan nan nan nan nan nan nan nan nan nan nan nan nan nan nan nan nan nan nan nan nan nan nan nan nan nan nan nan nan nan nan nan nan nan nan nan nan nan nan nan nan
nan nan nan 24 24 23 21 18 17 18 18 18 18 20 22 23 24 25 26 25 24 24 22 21 20 18 17 16 14 14 14 15 17 21 22 22 22 nan nan nan nan nan nan nan nan nan nan nan nan nan nan nan nan nan nan nan nan nan nan nan nan nan nan nan nan nan nan nan nan nan nan nan nan nan nan nan nan nan nan nan nan nan nan nan nan
27 nan nan nan 30 30 27 24 23 21 20 19 19 20 21 21 23 24 23 23 24 23 23 24 25 22 18 16 14 14 14 15 16 19 21 22 22 20 21 nan nan nan nan nan nan nan nan nan nan nan nan nan nan nan nan nan nan nan nan nan nan nan nan nan nan nan nan nan nan nan nan nan nan nan nan nan nan nan nan nan nan nan nan nan nan
28 30 30 nan 32 33 31 31 31 28 25 23 22 22 22 22 23 21 21 21 23 22 22 23 24 21 18 17 16 16 16 16 16 16 18 19 21 20 19 19 21 22 nan nan nan nan nan nan nan nan nan nan nan nan nan nan nan nan nan nan nan nan nan nan nan nan nan nan nan nan nan nan nan nan nan nan nan nan nan nan nan nan nan nan nan
nan 31 33 34 34 34 34 34 34 32 32 31 30 29 28 27 27 26 24 22 20 20 21 20 19 18 19 21 20 19 18 17 17 17 17 17 19 20 20 20 20 20 nan 22 nan nan nan nan nan nan nan nan nan nan nan nan nan nan nan nan nan nan nan nan nan nan nan nan nan nan nan nan nan nan nan nan nan nan nan nan nan nan nan nan nan
nan nan nan nan 36 37 36 36 37 37 36 33 33 33 34 33 31 29 27 24 20 18 18 18 19 19 20 21 21 21 20 20 20 20 20 21 22 23 24 24 23 22 nan nan nan nan nan nan nan nan nan nan nan nan nan nan nan nan nan nan nan nan nan nan nan nan nan nan nan nan nan nan nan nan nan nan nan nan nan nan nan nan nan nan nan
nan nan nan nan nan nan nan nan nan nan nan 40 38 39 41 39 35 34 33 29 25 22 19 18 19 19 19 21 20 20 20 20 20 21 22 24 26 27 27 28 27 26 25 nan nan nan nan nan nan nan nan nan nan nan nan nan nan nan nan nan nan nan nan nan nan nan nan nan nan nan nan nan nan nan nan nan nan nan nan nan nan nan nan nan nan
nan nan nan nan nan nan nan nan nan nan nan nan nan nan nan nan nan 40 37 32 28 26 25 23 20 18 19 22 23 23 22 21 19 20 21 23 26 28 30 29 28 28 26 25 nan 26 nan nan nan nan nan nan nan nan nan nan nan nan nan nan nan nan nan nan nan nan nan nan nan nan nan nan nan nan nan nan nan nan nan nan nan nan nan nan nan
nan nan nan nan nan nan nan nan nan nan nan nan nan nan nan nan nan nan nan 39 33 30 28 25 23 21 22 24 26 26 25 24 21 21 21 24 26 28 29 30 30 30 30 29 nan 28 nan nan nan nan nan nan nan nan nan nan nan nan nan nan nan nan nan nan nan nan nan nan nan nan nan nan nan nan nan nan nan nan nan nan nan nan nan nan nan
nan nan nan nan nan nan nan nan nan nan nan nan nan nan nan nan nan nan nan nan nan 37 35 31 29 28 28 28 28 28 29 28 26 24 23 25 27 28 29 30 32 32 33 33 31 30 nan nan 29 nan nan nan nan nan nan nan nan nan nan nan nan nan nan nan nan nan nan nan nan nan nan nan nan nan nan nan nan nan nan nan nan nan nan nan nan
nan nan nan nan nan nan nan nan nan nan nan nan nan nan nan nan nan nan nan nan nan nan nan 40 39 38 36 35 33 32 31 30 29 28 25 23 25 27 29 31 32 33 34 34 34 33 32 nan 32 nan nan nan nan nan nan nan nan nan nan nan nan nan nan nan nan nan nan nan nan nan nan nan nan nan nan nan nan nan nan nan nan nan nan nan nan
nan nan nan nan nan nan nan nan nan nan nan nan nan nan nan nan nan nan nan nan nan nan nan nan nan 44 43 41 39 36 34 30 27 27 28 27 27 27 28 30 33 34 35 35 34 35 36 37 37 nan nan nan nan nan nan nan nan nan nan nan nan nan nan nan nan nan nan nan nan nan nan nan nan nan nan nan nan nan nan nan nan nan nan nan nan
nan nan nan nan nan nan nan nan nan nan nan nan nan nan nan nan nan nan nan nan nan nan nan nan nan nan 45 47 44 42 39 34 30 29 29 29 28 27 27 29 32 34 34 35 nan 37 nan nan nan nan nan nan nan nan nan nan nan nan nan nan nan nan nan nan nan nan nan nan nan nan nan nan nan nan nan nan nan nan nan nan nan nan nan nan nan
nan nan nan nan nan nan nan nan nan nan nan nan nan nan nan nan nan nan nan nan nan nan nan nan nan nan nan nan 41 40 38 35 33 33 32 31 29 28 29 29 32 34 36 36 42 43 42 nan nan nan nan nan nan nan nan nan nan nan nan nan nan nan nan nan nan nan nan nan nan nan nan nan nan nan nan nan nan nan nan nan nan nan nan nan nan
nan nan nan nan nan nan nan nan nan nan nan nan nan nan nan nan nan nan nan nan nan nan nan nan nan nan nan nan nan 41 39 38 36 35 36 36 34 33 32 31 31 34 37 40 44 45 45 nan nan nan nan nan nan nan nan nan nan nan nan nan nan nan nan nan nan nan nan nan nan nan nan nan nan nan nan nan nan nan nan nan nan nan nan nan nan
nan nan nan nan nan nan nan nan nan nan nan nan nan nan nan nan nan nan nan nan nan nan nan nan nan nan nan nan nan nan nan 43 42 40 41 40 38 38 37 35 35 36 42 45 48 50 49 nan nan 47 48 nan nan nan nan nan nan nan nan nan nan nan nan nan nan nan nan nan nan nan nan nan nan nan nan nan nan nan nan nan nan nan nan nan nan
nan nan nan nan nan nan nan nan nan nan nan nan nan nan nan nan nan nan nan nan nan nan nan nan nan nan nan nan nan nan nan nan 47 46 45 45 45 43 41 41 42 45 50 49 50 50 50 nan 46 47 50 nan nan nan nan nan nan nan nan nan nan nan nan nan nan nan nan nan nan nan nan nan nan nan nan nan nan nan nan nan nan nan nan nan nan
nan nan nan nan nan nan nan nan nan nan nan nan nan nan nan nan nan nan nan nan nan nan nan nan nan nan nan nan nan nan nan nan 51 50 51 50 50 50 48 47 46 47 49 50 48 48 48 49 50 nan nan nan nan nan nan nan nan nan nan nan nan nan nan nan nan nan nan nan nan nan nan nan nan nan nan nan nan nan nan nan nan nan nan nan nan
nan nan nan nan nan nan nan nan nan nan nan nan nan nan nan nan nan nan nan nan nan nan nan nan nan nan nan nan nan nan nan nan nan 53 53 53 53 53 52 51 50 49 50 52 51 50 50 52 54 56 nan 56 nan nan nan nan nan nan nan nan nan nan nan nan nan nan nan nan nan nan nan nan nan nan nan nan nan nan nan nan nan nan nan nan nan
nan nan nan nan nan nan nan nan nan nan nan nan nan nan nan nan nan nan nan nan nan nan nan nan nan nan nan nan nan nan nan nan nan nan 53 53 53 54 52 52 53 54 54 54 54 54 55 56 58 58 nan 58 nan 59 nan nan nan nan nan nan nan nan nan nan nan nan nan nan nan nan nan nan nan nan nan nan nan nan nan nan nan nan nan nan nan
nan nan nan nan nan nan nan nan nan nan nan nan nan nan nan nan nan nan nan nan nan nan nan nan nan nan nan nan nan nan nan nan nan nan nan 52 52 52 52 52 51 51 53 53 53 56 59 60 61 nan nan nan nan nan nan nan nan nan nan nan nan nan nan nan nan nan nan nan nan nan nan nan nan nan nan nan nan nan nan nan nan nan nan nan nan
nan nan nan nan nan nan nan nan nan nan nan nan nan nan nan nan nan nan nan nan nan nan nan nan nan nan nan nan nan nan nan nan nan nan nan 50 50 50 50 51 49 50 52 54 57 59 60 63 64 64 nan nan nan nan nan nan nan nan nan nan nan nan nan nan nan nan nan nan nan nan nan nan nan nan nan nan nan nan nan nan nan nan nan nan nan
nan nan nan nan nan nan nan nan nan nan nan nan nan nan nan nan nan nan nan nan nan nan nan nan nan nan nan nan nan nan nan nan nan nan nan 48 48 49 49 50 49 49 50 53 57 60 62 63 nan nan nan nan nan nan nan nan nan nan nan nan nan nan nan nan nan nan nan nan nan nan nan nan nan nan nan nan nan nan nan nan nan nan nan nan nan
nan nan nan nan nan nan nan nan nan nan nan nan nan nan nan nan nan nan nan nan nan nan nan nan nan nan nan nan nan nan nan nan nan nan nan 46 46 47 48 48 48 48 49 51 56 60 62 nan nan nan nan nan nan nan nan nan nan nan nan nan nan nan nan nan nan nan nan nan nan nan nan nan nan nan nan nan nan nan nan nan nan nan nan nan nan
nan nan nan nan nan nan nan nan nan nan nan nan nan nan nan nan nan nan nan nan nan nan nan nan nan nan nan nan nan nan nan nan nan nan nan 44 46 46 46 46 46 47 50 nan nan 58 nan 62 nan nan nan nan nan nan nan nan nan nan nan nan nan nan nan nan nan nan nan nan nan nan nan nan nan nan nan nan nan nan nan nan nan nan nan nan nan
nan nan nan nan nan nan nan nan nan nan nan nan nan nan nan nan nan nan nan nan nan nan nan nan nan nan nan nan nan nan nan nan nan 42 43 44 45 46 46 46 47 48 nan nan nan nan nan nan nan nan nan nan nan nan nan nan nan nan nan nan nan nan nan nan nan nan nan nan nan nan nan nan nan nan nan nan nan nan nan nan nan nan nan nan nan
nan nan nan nan nan nan nan nan nan nan nan nan nan nan nan nan nan nan nan nan nan nan nan nan nan nan nan nan nan nan nan nan nan 42 43 43 45 45 47 nan nan 52 54 56 nan nan nan nan nan nan nan nan nan nan nan nan nan nan nan nan nan nan nan nan nan nan nan nan nan nan nan nan nan nan nan nan nan nan nan nan nan nan nan nan nan
nan nan nan nan nan nan nan nan nan nan nan nan nan nan nan nan nan nan nan nan nan nan nan nan nan nan nan nan nan nan nan nan 44 43 nan 42 46 47 nan nan 54 54 55 57 nan nan nan nan nan nan nan nan nan nan nan nan nan nan nan nan nan nan nan nan nan nan nan nan nan nan nan nan nan nan nan nan nan nan nan nan nan nan nan nan nan
nan nan nan nan nan nan nan nan nan nan nan nan nan nan nan nan nan nan nan nan nan nan nan nan nan nan nan nan nan nan nan 42 42 42 nan 44 46 nan nan 52 56 57 56 nan nan nan nan nan nan nan nan nan nan nan nan nan nan nan nan nan nan nan nan nan nan nan nan nan nan nan nan nan nan nan nan nan nan nan nan nan nan nan nan nan nan
nan nan nan nan nan nan nan nan nan nan nan nan nan nan nan nan nan nan nan nan nan nan nan nan nan nan nan nan nan nan nan nan nan nan nan nan nan nan 56 57 58 nan nan nan nan nan nan nan nan nan nan nan nan nan nan nan nan nan nan nan nan nan nan nan nan nan nan nan nan nan nan nan nan nan nan nan nan nan nan nan nan nan nan nan nan
nan nan nan nan nan nan nan nan nan nan nan nan nan nan nan nan nan nan nan nan nan nan nan nan nan nan nan nan nan nan nan nan 46 nan nan nan nan nan 58 57 nan nan nan nan nan nan nan nan nan nan nan nan nan nan nan nan nan nan nan nan nan nan nan nan nan nan nan nan nan nan nan nan nan nan nan nan nan nan nan nan nan nan nan nan nan
nan nan nan nan nan nan nan nan nan nan nan nan nan nan nan nan nan nan nan nan nan nan nan nan nan nan nan nan nan nan nan nan nan nan nan nan 58 60 60 nan nan nan nan nan nan nan nan nan nan nan nan nan nan nan nan nan nan nan nan nan nan nan nan nan nan nan nan nan nan nan nan nan nan nan nan nan nan nan nan nan nan nan nan nan nan
nan nan nan nan nan nan nan nan nan nan nan nan nan nan nan nan nan nan nan nan nan nan nan nan nan nan nan nan nan nan nan nan nan nan nan 56 55 56 nan nan nan nan nan nan nan nan nan nan nan nan nan nan nan nan nan nan nan nan nan nan nan nan nan nan nan nan nan nan nan nan nan nan nan nan nan nan nan nan nan nan nan nan nan nan nan
nan nan nan nan nan nan nan nan nan nan nan nan nan nan nan nan nan nan nan nan nan nan nan nan nan nan nan nan nan nan nan nan nan nan nan nan nan nan nan nan nan nan nan nan nan nan nan nan nan nan nan nan nan nan nan nan nan nan nan nan nan nan nan nan nan nan nan nan nan nan nan nan nan nan nan nan nan nan nan nan nan nan nan nan nan
nan nan nan nan nan nan nan nan nan nan nan nan nan nan nan nan nan nan nan nan nan nan nan nan nan nan nan nan nan nan nan nan nan nan nan nan nan nan nan nan nan nan nan nan nan nan nan nan nan nan nan nan nan nan nan nan nan nan nan nan nan nan nan nan nan nan nan nan nan nan nan nan nan nan nan nan nan nan nan nan nan nan nan nan nan
nan nan nan nan nan nan nan nan nan nan nan nan nan nan nan nan nan nan nan nan nan nan nan nan nan nan nan nan nan nan nan nan nan nan nan nan nan nan nan nan nan nan nan nan nan nan nan nan nan nan nan nan nan nan nan nan nan nan nan nan nan nan nan nan nan nan nan nan nan nan nan nan nan nan nan nan nan nan nan nan nan nan nan nan nan
Wind_Direction
278 281 285 287 288 282 281 278 277 277 279 282 283 285 286 285 283 282 277 274 270 267 nan nan nan nan nan nan nan 260 260 262 nan nan nan 259 nan nan nan nan 260 259 260 265 266 267 267 269 271 271 271 270 270 271 274 273 269 264 261 260 259 258 256 253 249 258 260 252 245 237 230 234 233 228 227 225 229 230 233 232 232 234 234 234 234
280 284 288 288 287 285 282 280 283 286 285 287 288 288 287 286 285 283 280 278 274 269 nan nan nan nan nan nan nan nan nan nan nan nan nan nan nan nan nan nan nan nan nan 263 264 267 269 271 272 272 271 269 268 268 268 267 265 260 257 255 260 263 260 259 260 267 267 262 256 245 233 233 233 231 229 224 228 228 228 230 231 231 233 235 236
288 288 287 285 287 289 286 287 288 290 290 292 291 290 289 287 285 284 283 282 280 277 272 nan 264 nan nan nan nan nan nan nan nan nan nan nan nan nan nan nan nan nan nan nan nan 265 266 267 267 270 271 270 270 268 268 266 262 261 258 253 258 264 263 263 267 272 267 269 265 255 241 234 236 235 233 230 230 227 228 227 228 228 230 234 237
292 287 283 281 285 288 291 290 290 291 292 293 293 294 288 288 286 286 285 284 283 282 nan nan 269 264 260 261 nan nan nan nan nan nan nan nan nan nan nan nan nan nan nan nan nan nan nan 267 267 267 267 266 267 265 264 263 260 259 258 255 254 259 264 265 269 272 265 268 265 257 250 241 231 233 234 234 231 229 231 231 232 231 232 235 236
278 279 279 279 285 291 295 294 292 295 295 296 294 293 287 292 289 288 286 285 283 281 279 275 273 272 267 265 nan nan nan nan nan nan nan nan nan nan nan nan nan nan nan nan nan nan nan nan 267 267 266 265 nan 263 260 258 257 254 253 257 257 254 258 259 263 268 267 262 260 264 259 250 235 232 231 233 232 228 232 235 238 232 232 234 236
265 276 283 283 284 284 289 294 298 297 296 294 292 291 289 290 288 287 285 283 283 283 279 nan nan nan nan nan nan nan nan nan nan nan nan nan nan nan nan nan nan nan nan nan nan nan nan nan nan nan nan nan nan nan nan nan nan 257 253 253 254 252 250 257 258 260 251 254 260 262 260 254 242 235 231 231 233 234 229 228 232 235 237 237 236
256 257 262 274 279 283 289 295 298 297 295 290 289 289 290 289 289 290 287 283 283 282 282 nan nan nan nan nan nan nan nan nan nan nan nan nan nan nan nan nan nan nan nan nan nan nan nan nan nan nan nan nan nan nan nan nan nan nan nan 252 251 250 248 252 254 254 255 254 260 270 273 271 256 245 234 229 231 233 232 235 233 231 234 232 233
245 251 260 265 272 281 290 293 293 293 288 287 287 287 291 290 291 292 289 286 285 283 284 nan nan nan nan nan nan nan nan nan nan nan nan nan nan nan nan nan nan nan nan nan nan nan nan nan nan nan nan nan nan nan nan nan nan nan nan nan nan nan 251 250 250 248 251 nan 263 267 269 268 266 257 244 235 229 228 233 236 237 235 233 233 234
nan nan 248 259 268 275 276 279 284 284 284 286 285 285 287 288 291 293 292 290 288 290 287 284 nan nan nan nan nan nan nan nan nan nan nan nan nan nan nan nan nan nan nan nan nan nan nan nan nan nan nan nan nan nan nan nan nan nan nan nan nan nan nan nan nan nan nan nan nan nan 253 256 262 263 259 255 244 233 230 234 235 237 237 236 238
nan nan nan nan 252 263 268 272 279 281 279 278 277 278 282 285 290 293 293 289 289 292 290 286 280 275 nan nan nan nan nan nan nan nan nan nan nan nan nan nan nan nan nan nan nan nan nan nan nan nan nan nan nan nan nan nan nan nan nan nan nan nan nan nan nan nan nan nan nan nan nan nan nan 264 nan nan nan 248 232 nan nan nan 235 241 nan
nan nan nan nan nan 257 268 276 277 276 274 277 277 279 278 283 291 292 291 287 288 291 292 287 280 277 nan nan nan nan nan nan nan nan nan nan nan nan nan nan nan nan nan nan nan nan nan nan nan nan nan nan nan nan nan nan nan nan nan nan nan nan nan nan nan nan nan nan nan nan nan nan nan nan nan nan nan nan nan nan nan nan nan nan nan
nan nan nan nan nan 270 273 275 274 274 275 276 276 280 281 284 289 291 290 290 286 289 291 286 281 281 277 279 nan nan nan nan nan nan nan nan nan nan nan nan nan nan nan nan nan nan nan nan nan nan nan nan nan nan nan nan nan nan nan nan nan nan nan nan nan nan nan nan nan nan nan nan nan nan nan nan nan nan nan nan nan nan nan nan nan
nan nan nan nan nan 273 274 270 269 271 271 275 276 281 285 290 291 292 292 291 287 289 292 293 291 287 284 283 283 281 284 nan nan nan nan nan nan nan nan nan nan nan nan nan nan nan nan nan nan nan nan nan nan nan nan nan nan nan nan nan nan nan nan nan nan nan nan nan nan nan nan nan nan nan nan nan nan nan nan nan nan nan nan nan nan
nan nan nan nan nan 262 263 265 267 265 269 274 278 282 287 286 289 293 292 290 287 289 296 302 303 296 291 286 284 283 285 285 nan nan nan nan nan nan nan nan nan nan nan nan nan nan nan nan nan nan nan nan nan nan nan nan nan nan nan nan nan nan nan nan nan nan nan nan nan nan nan nan nan nan nan nan nan nan nan nan nan nan nan nan nan
nan nan nan 239 249 258 260 265 268 268 275 279 280 285 284 284 286 288 288 287 288 293 296 304 301 300 292 287 285 283 287 288 nan nan 288 nan nan nan nan nan nan nan nan nan nan nan nan nan nan nan nan nan nan nan nan nan nan nan nan nan nan nan nan nan nan nan nan nan nan nan nan nan nan nan nan nan nan nan nan nan nan nan nan nan nan
nan nan 233 246 258 262 263 267 269 272 280 278 282 282 282 284 285 288 290 289 293 296 298 301 302 298 300 298 295 290 288 291 nan nan 291 293 293 nan nan nan nan nan nan nan nan nan nan nan nan nan nan nan nan nan nan nan nan nan nan nan nan nan nan nan nan nan nan nan nan nan nan nan nan nan nan nan nan nan nan nan nan nan nan nan nan
nan nan nan 227 248 261 264 268 273 271 272 273 276 278 283 284 281 287 288 288 294 294 294 296 299 300 303 303 301 299 296 293 292 295 295 295 296 nan nan nan nan nan nan nan nan nan nan nan nan nan nan nan nan nan nan nan nan nan nan nan nan nan nan nan nan nan nan nan nan nan nan nan nan nan nan nan nan nan nan nan nan nan nan nan nan
226 nan nan nan 225 237 251 261 263 266 269 272 272 270 274 273 273 282 285 287 287 288 292 294 298 302 305 305 305 302 298 298 294 296 295 293 294 297 298 nan nan nan nan nan nan nan nan nan nan nan nan nan nan nan nan nan nan nan nan nan nan nan nan nan nan nan nan nan nan nan nan nan nan nan nan nan nan nan nan nan nan nan nan nan nan
224 227 236 nan 232 230 236 245 249 248 248 254 258 261 261 259 259 266 277 278 275 277 283 283 291 293 292 293 294 292 291 289 292 294 295 297 299 298 300 301 300 298 nan nan nan nan nan nan nan nan nan nan nan nan nan nan nan nan nan nan nan nan nan nan nan nan nan nan nan nan nan nan nan nan nan nan nan nan nan nan nan nan nan nan nan
nan 226 231 239 243 241 237 238 243 245 244 243 245 247 251 251 251 255 262 268 268 272 277 281 288 289 284 284 287 290 290 287 285 287 288 292 296 297 296 294 295 296 nan 301 nan nan nan nan nan nan nan nan nan nan nan nan nan nan nan nan nan nan nan nan nan nan nan nan nan nan nan nan nan nan nan nan nan nan nan nan nan nan nan nan nan
nan nan nan nan 243 248 249 247 244 241 241 244 247 249 248 247 246 250 253 254 253 258 266 272 278 285 287 289 289 288 290 288 287 285 284 284 285 288 291 290 289 291 nan nan nan nan nan nan nan nan nan nan nan nan nan nan nan nan nan nan nan nan nan nan nan nan nan nan nan nan nan nan nan nan nan nan nan nan nan nan nan nan nan nan nan
nan nan nan nan nan nan nan nan nan nan nan 247 249 248 245 243 244 246 245 243 243 249 255 260 268 277 288 289 290 286 284 285 286 283 282 281 282 284 286 289 290 290 292 nan nan nan nan nan nan nan nan nan nan nan nan nan nan nan nan nan nan nan nan nan nan nan nan nan nan nan nan nan nan nan nan nan nan nan nan nan nan nan nan nan nan
nan nan nan nan nan nan nan nan nan nan nan nan nan nan nan nan nan 244 244 245 246 250 251 255 260 269 276 279 281 283 282 283 284 281 282 282 281 282 284 286 288 287 290 293 nan 294 nan nan nan nan nan nan nan nan nan nan nan nan nan nan nan nan nan nan nan nan nan nan nan nan nan nan nan nan nan nan nan nan nan nan nan nan nan nan nan
nan nan nan nan nan nan nan nan nan nan nan nan nan nan nan nan nan nan nan 246 251 256 258 260 263 264 261 262 266 268 270 272 277 279 282 283 282 282 285 287 288 287 291 293 nan 295 nan nan nan nan nan nan nan nan nan nan nan nan nan nan nan nan nan nan nan nan nan nan nan nan nan nan nan nan nan nan nan nan nan nan nan nan nan nan nan
nan nan nan nan nan nan nan nan nan nan nan nan nan nan nan nan nan nan nan nan nan 252 254 256 262 262 258 256 257 259 261 262 265 266 273 278 280 282 286 292 291 291 292 292 292 293 nan nan 291 nan nan nan nan nan nan nan nan nan nan nan nan nan nan nan nan nan nan nan nan nan nan nan nan nan nan nan nan nan nan nan nan nan nan nan nan
nan nan nan nan nan nan nan nan nan nan nan nan nan nan nan nan nan nan nan nan nan nan nan 250 252 253 251 250 250 251 254 256 259 264 267 276 281 285 288 289 292 292 291 290 292 290 290 nan 292 nan nan nan nan nan nan nan nan nan nan nan nan nan nan nan nan nan nan nan nan nan nan nan nan nan nan nan nan nan nan nan nan nan nan nan nan
nan nan nan nan nan nan nan nan nan nan nan nan nan nan nan nan nan nan nan nan nan nan nan nan nan 248 250 249 248 249 248 247 254 261 267 273 279 282 285 284 284 286 288 288 289 291 290 291 292 nan nan nan nan nan nan nan nan nan nan nan nan nan nan nan nan nan nan nan nan nan nan nan nan nan nan nan nan nan nan nan nan nan nan nan nan
nan nan nan nan nan nan nan nan nan nan nan nan nan nan nan nan nan nan nan nan nan nan nan nan nan nan 244 242 243 246 244 245 254 261 265 268 271 274 276 276 278 282 284 285 nan 284 nan nan nan nan nan nan nan nan nan nan nan nan nan nan nan nan nan nan nan nan nan nan nan nan nan nan nan nan nan nan nan nan nan nan nan nan nan nan nan
nan nan nan nan nan nan nan nan nan nan nan nan nan nan nan nan nan nan nan nan nan nan nan nan nan nan nan nan 246 249 248 248 253 258 261 264 267 268 270 273 277 281 280 283 284 288 291 nan nan nan nan nan nan nan nan nan nan nan nan nan nan nan nan nan nan nan nan nan nan nan nan nan nan nan nan nan nan nan nan nan nan nan nan nan nan
nan nan nan nan nan nan nan nan nan nan nan nan nan nan nan nan nan nan nan nan nan nan nan nan nan nan nan nan nan 252 250 250 253 256 259 262 264 266 268 271 277 282 283 284 287 287 288 nan nan nan nan nan nan nan nan nan nan nan nan nan nan nan nan nan nan nan nan nan nan nan nan nan nan nan nan nan nan nan nan nan nan nan nan nan nan
nan nan nan nan nan nan nan nan nan nan nan nan nan nan nan nan nan nan nan nan nan nan nan nan nan nan nan nan nan nan nan 256 257 257 259 262 263 264 264 265 271 278 281 285 285 285 283 nan nan 290 291 nan nan nan nan nan nan nan nan nan nan nan nan nan nan nan nan nan nan nan nan nan nan nan nan nan nan nan nan nan nan nan nan nan nan
nan nan nan nan nan nan nan nan nan nan nan nan nan nan nan nan nan nan nan nan nan nan nan nan nan nan nan nan nan nan nan nan 260 261 263 264 265 266 266 265 267 276 281 283 284 286 286 nan 287 290 288 nan nan nan nan nan nan nan nan nan nan nan nan nan nan nan nan nan nan nan nan nan nan nan nan nan nan nan nan nan nan nan nan nan nan
nan nan nan nan nan nan nan nan nan nan nan nan nan nan nan nan nan nan nan nan nan nan nan nan nan nan nan nan nan nan nan nan 262 264 265 266 268 270 271 270 271 274 277 282 284 284 284 283 283 nan nan nan nan nan nan nan nan nan nan nan nan nan nan nan nan nan nan nan nan nan nan nan nan nan nan nan nan nan nan nan nan nan nan nan nan
nan nan nan nan nan nan nan nan nan nan nan nan nan nan nan nan nan nan nan nan nan nan nan nan nan nan nan nan nan nan nan nan nan 266 267 268 269 270 271 271 272 275 277 279 282 284 283 282 281 282 nan 280 nan nan nan nan nan nan nan nan nan nan nan nan nan nan nan nan nan nan nan nan nan nan nan nan nan nan nan nan nan nan nan nan nan
nan nan nan nan nan nan nan nan nan nan nan nan nan nan nan nan nan nan nan nan nan nan nan nan nan nan nan nan nan nan nan nan nan nan 269 270 271 272 272 272 274 277 278 278 280 282 281 282 282 282 nan 281 nan 284 nan nan nan nan nan nan nan nan nan nan nan nan nan nan nan nan nan nan nan nan nan nan nan nan nan nan nan nan nan nan nan
nan nan nan nan nan nan nan nan nan nan nan nan nan nan nan nan nan nan nan nan nan nan nan nan nan nan nan nan nan nan nan nan nan nan nan 271 272 273 273 273 273 274 275 277 278 280 281 282 282 nan nan nan nan nan nan nan nan nan nan nan nan nan nan nan nan nan nan nan nan nan nan nan nan nan nan nan nan nan nan nan nan nan nan nan nan
nan nan nan nan nan nan nan nan nan nan nan nan nan nan nan nan nan nan nan nan nan nan nan nan nan nan nan nan nan nan nan nan nan nan nan 268 270 272 272 272 272 272 274 276 279 279 279 280 281 279 nan nan nan nan nan nan nan nan nan nan nan nan nan nan nan nan nan nan nan nan nan nan nan nan nan nan nan nan nan nan nan nan nan nan nan
nan nan nan nan nan nan nan nan nan nan nan nan nan nan nan nan nan nan nan nan nan nan nan nan nan nan nan nan nan nan nan nan nan nan nan 266 268 268 270 270 270 270 272 273 274 275 276 276 nan nan nan nan nan nan nan nan nan nan nan nan nan nan nan nan nan nan nan nan nan nan nan nan nan nan nan nan nan nan nan nan nan nan nan nan nan
nan nan nan nan nan nan nan nan nan nan nan nan nan nan nan nan nan nan nan nan nan nan nan nan nan nan nan nan nan nan nan nan nan nan nan 266 268 268 268 269 269 270 271 272 272 272 272 nan nan nan nan nan nan nan nan nan nan nan nan nan nan nan nan nan nan nan nan nan nan nan nan nan nan nan nan nan nan nan nan nan nan nan nan nan nan
nan nan nan nan nan nan nan nan nan nan nan nan nan nan nan nan nan nan nan nan nan nan nan nan nan nan nan nan nan nan nan nan nan nan nan 266 267 268 269 269 270 270 271 nan nan 271 nan 271 nan nan nan nan nan nan nan nan nan nan nan nan nan nan nan nan nan nan nan nan nan nan nan nan nan nan nan nan nan nan nan nan nan nan nan nan nan
nan nan nan nan nan nan nan nan nan nan nan nan nan nan nan nan nan nan nan nan nan nan nan nan nan nan nan nan nan nan nan nan nan 264 264 266 267 268 270 271 272 271 nan nan nan nan nan nan nan nan nan nan nan nan nan nan nan nan nan nan nan nan nan nan nan nan nan nan nan nan nan nan nan nan nan nan nan nan nan nan nan nan nan nan nan
nan nan nan nan nan nan nan nan nan nan nan nan nan nan nan nan nan nan nan nan nan nan nan nan nan nan nan nan nan nan nan nan nan 265 265 266 267 269 270 nan nan 272 274 271 nan nan nan nan nan nan nan nan nan nan nan nan nan nan nan nan nan nan nan nan nan nan nan nan nan nan nan nan nan nan nan nan nan nan nan nan nan nan nan nan nan
nan nan nan nan nan nan nan nan nan nan nan nan nan nan nan nan nan nan nan nan nan nan nan nan nan nan nan nan nan nan nan nan 262 264 nan 265 267 269 nan nan 271 271 270 267 nan nan nan nan nan nan nan nan nan nan nan nan nan nan nan nan nan nan nan nan nan nan nan nan nan nan nan nan nan nan nan nan nan nan nan nan nan nan nan nan nan
nan nan nan nan nan nan nan nan nan nan nan nan nan nan nan nan nan nan nan nan nan nan nan nan nan nan nan nan nan nan nan 261 263 265 nan 264 267 nan nan 268 265 263 264 nan nan nan nan nan nan nan nan nan nan nan nan nan nan nan nan nan nan nan nan nan nan nan nan nan nan nan nan nan nan nan nan nan nan nan nan nan nan nan nan nan nan
nan nan nan nan nan nan nan nan nan nan nan nan nan nan nan nan nan nan nan nan nan nan nan nan nan nan nan nan nan nan nan nan nan nan nan nan nan nan 264 264 265 nan nan nan nan nan nan nan nan nan nan nan nan nan nan nan nan nan nan nan nan nan nan nan nan nan nan nan nan nan nan nan nan nan nan nan nan nan nan nan nan nan nan nan nan
nan nan nan nan nan nan nan nan nan nan nan nan nan nan nan nan nan nan nan nan nan nan nan nan nan nan nan nan nan nan nan nan 267 nan nan nan nan nan 268 267 nan nan nan nan nan nan nan nan nan nan nan nan nan nan nan nan nan nan nan nan nan nan nan nan nan nan nan nan nan nan nan nan nan nan nan nan nan nan nan nan nan nan nan nan nan
nan nan nan nan nan nan nan nan nan nan nan nan nan nan nan nan nan nan nan nan nan nan nan nan nan nan nan nan nan nan nan nan nan nan nan nan 273 272 271 nan nan nan nan nan nan nan nan nan nan nan nan nan nan nan nan nan nan nan nan nan nan nan nan nan nan nan nan nan nan nan nan nan nan nan nan nan nan nan nan nan nan nan nan nan nan
nan nan nan nan nan nan nan nan nan nan nan nan nan nan nan nan nan nan nan nan nan nan nan nan nan nan nan nan nan nan nan nan nan nan nan 278 274 273 nan nan nan nan nan nan nan nan nan nan nan nan nan nan nan nan nan nan nan nan nan nan nan nan nan nan nan nan nan nan nan nan nan nan nan nan nan nan nan nan nan nan nan nan nan nan nan
nan nan nan nan nan nan nan nan nan nan nan nan nan nan nan nan nan nan nan nan nan nan nan nan nan nan nan nan nan nan nan nan nan nan nan nan nan nan nan nan nan nan nan nan nan nan nan nan nan nan nan nan nan nan nan nan nan nan nan nan nan nan nan nan nan nan nan nan nan nan nan nan nan nan nan nan nan nan nan nan nan nan nan nan nan
nan nan nan nan nan nan nan nan nan nan nan nan nan nan nan nan nan nan nan nan nan nan nan nan nan nan nan nan nan nan nan nan nan nan nan nan nan nan nan nan nan nan nan nan nan nan nan nan nan nan nan nan nan nan nan nan nan nan nan nan nan nan nan nan nan nan nan nan nan nan nan nan nan nan nan nan nan nan nan nan nan nan nan nan nan
nan nan nan nan nan nan nan nan nan nan nan nan nan nan nan nan nan nan nan nan nan nan nan nan nan nan nan nan nan nan nan nan nan nan nan nan nan nan nan nan nan nan nan nan nan nan nan nan nan nan nan nan nan nan nan nan nan nan nan nan nan nan nan nan nan nan nan nan nan nan nan nan nan nan nan nan nan nan nan nan nan nan nan nan nan